User: anonymous   Login
Location: Bismarck
(46.7731°N, 100.8200°W)
Time: 19:20:38
(UTC-06:00)
Language:

Landsat 7 - Orbit

View from above orbital plane
View from above orbital plane
View from above satellite
View from above satellite

Ground track
Ground track

The orbit data is extracted from the following two-line orbital elements,

1 25682U 99020A   17351.19859614 -.00000070  00000-0 -54772-5 0  9992
2 25682  98.1940  59.6300 0001225  97.7419 262.3916 14.57122152993242
Epoch (UTC): 17 December 2017 04:45:58
Eccentricity: 0.0001225
inclination: 98.1940°
perigee height: 701 km
apogee height: 703 km
right ascension of ascending node: 59.6300°
argument of perigee: 97.7419°
revolutions per day: 14.57122152
mean anomaly at epoch: 262.3916°
orbit number at epoch: 99324

The dashed part of the orbit path shows where the satellite is in the earth's shadow,  

DLR